Weather in Tsnal

Russia / Republic of Dagestan     41°41′46″N   47°59′54″E
temp.,
°C
wind,
m/s
gust,
m/s
humid.,
%
clouds,
%
prec.,
mm/h
press.,
hPa
HPBL,
m
17 june, thu
thu1700:00+20w33510 0.0 100821
03:00+19w43390 0.0 100724
06:00+22w33410 0.0 100646
09:00+29ese22270 0.0 1005633
12:00+32ene33230 0.0 10041360
15:00+32n97250 0.0 10051807
18:00+24n610540 0.0 1010606
21:00+19w33730 0.0 101435
18 june, fri
fri1800:00+18w22760 0.3 101515
03:00+17sw21804 0.3 101611
06:00+20wsw11660 0.0 1016117
09:00+24e33530 0.0 10161113
12:00+24e435766 0.1 10161320
15:00+22ene226458 1.4 1016753
18:00+21ene216424 0.3 1017435
21:00+18w32780 0.3 101819
19 june, sat
sat1900:00+17w22760 0.0 101812
03:00+17w33725 0.0 101819
06:00+21w22613 0.0 101873
09:00+26e23391 0.0 1017959
12:00+29ese55290 0.0 10151887
15:00+28e43360 0.0 10151245
18:00+25ese22480 0.0 1016177
21:00+19w33570 0.0 101721
20 june, sun
sun2000:00+19w33530 0.0 101619
03:00+19w43460 0.0 101524
06:00+22w224211 0.0 101546
09:00+26ese22295 0.0 1014538
12:00+30e44264 0.0 10131299
15:00+28e54340 0.0 10131093
18:00+24e22440 0.0 1014292
21:00+19w22570 0.0 101511
21 june, mon
mon2100:00+19w32510 0.0 101414
03:00+18w32470 0.0 101414
06:00+22w22440 0.0 101452
09:00+26e32310 0.0 1014655
12:00+30e44210 0.0 10131510
15:00+29e65220 0.0 10131266
18:00+24e22310 0.0 1013184
21:00+19w32400 0.0 101414